Tracking 18980 objects as of 23-Feb-2018
HD Live streaming from Space Station
objects crossing your sky now

NOAA 16 DEB

Track NOAA 16 DEB now!
10-day predictions


NORAD ID: 41290
Int'l Code: 2000-055GS
Perigee: 818.1 km
Apogee: 856.3 km
Inclination: 99.0 °
Period: 101.5 minutes
Semi major axis: 7208 km
RCS: Unknown
Launch date: September 21, 2000
Source: United States (US)
Launch site: AIR FORCE WESTERN TEST RANGE (AFWTR)

Note: This is SATELLITE DEBRIS
aabbcc
Your satellite tracking list
Your tracking list is empty




NASA's NSSDC Master Catalog

Two Line Element Set (TLE):
1 41290U 00055GS  18053.46664965 +.00000912 +00000-0 +46082-3 0  9994
2 41290 098.9870 145.4874 0026474 300.4834 059.3727 14.18609371112239
Source of the keplerian elements: AFSPC